When you browse on this site, cookies collect data to enhance your experience and personalize the content and advertising you see.
Visit our Privacy Policy to learn more. By continuing to use the site, you agree to this use of cookies and data.

Meteo pe oră la Galata

Astăzi, 12 August, Miercuri

Timp Temperatura Precipitaţii Vânt Presiune Umiditate
00:00 +23°C° 0 mm 1 m/s 754 mmHg 52%
01:00 +23°C° 0 mm 2 m/s 754 mmHg 50%
02:00 +23°C° 0 mm 2 m/s 754 mmHg 49%
03:00 +23°C° 0 mm 1 m/s 754 mmHg 49%
04:00 +23°C° 0 mm 1 m/s 754 mmHg 48%
05:00 +22°C° 0 mm 1 m/s 754 mmHg 48%
06:00 +24°C° 0 mm 1 m/s 754 mmHg 44%
07:00 +26°C° 0 mm 1 m/s 754 mmHg 39%
08:00 +29°C° 0 mm 1 m/s 754 mmHg 34%
09:00 +30°C° 0 mm 1 m/s 754 mmHg 32%
10:00 +32°C° 0 mm 1 m/s 754 mmHg 30%
11:00 +34°C° 0 mm 2 m/s 755 mmHg 28%
12:00 +34°C° 0 mm 2 m/s 754 mmHg 29%
13:00 +34°C° 0 mm 3 m/s 754 mmHg 31%
14:00 +33°C° 0 mm 4 m/s 754 mmHg 32%
15:00 +33°C° 0 mm 4 m/s 754 mmHg 34%
16:00 +32°C° 0 mm 4 m/s 754 mmHg 36%
17:00 +32°C° 0 mm 4 m/s 754 mmHg 38%
18:00 +29°C° 0 mm 3 m/s 754 mmHg 45%
19:00 +27°C° 0 mm 2 m/s 754 mmHg 53%
20:00 +25°C° 0 mm 1 m/s 754 mmHg 60%
21:00 +25°C° 0 mm 1 m/s 754 mmHg 61%
22:00 +24°C° 0 mm 1 m/s 755 mmHg 62%
23:00 +22°C° 0 mm 0 m/s 755 mmHg 63%

Mâine, 13 August, Joi

Timp Temperatura Precipitaţii Vânt Presiune Umiditate
00:00 +23°C° 0.1 mm 1 m/s 755 mmHg 64%
01:00 +23°C° 0.1 mm 2 m/s 755 mmHg 64%
02:00 +23°C° 0.1 mm 2 m/s 755 mmHg 65%
03:00 +21°C° 0.1 mm 3 m/s 755 mmHg 69%
04:00 +20°C° 0.1 mm 3 m/s 755 mmHg 74%
05:00 +20°C° 0.1 mm 4 m/s 755 mmHg 78%
06:00 +22°C° 0 mm 4 m/s 756 mmHg 73%
07:00 +23°C° 0 mm 5 m/s 756 mmHg 68%
08:00 +26°C° 0 mm 5 m/s 756 mmHg 63%
09:00 +28°C° 0.1 mm 6 m/s 756 mmHg 58%
10:00 +29°C° 0.1 mm 6 m/s 757 mmHg 53%
11:00 +30°C° 0.1 mm 6 m/s 757 mmHg 48%
12:00 +30°C° 0 mm 7 m/s 756 mmHg 49%
13:00 +30°C° 0 mm 7 m/s 756 mmHg 50%
14:00 +29°C° 0 mm 7 m/s 756 mmHg 51%
15:00 +28°C° 0 mm 6 m/s 756 mmHg 54%
16:00 +28°C° 0 mm 6 m/s 756 mmHg 57%
17:00 +27°C° 0 mm 6 m/s 756 mmHg 60%
18:00 +25°C° 0 mm 5 m/s 756 mmHg 66%
19:00 +23°C° 0 mm 4 m/s 756 mmHg 73%
20:00 +21°C° 0 mm 3 m/s 756 mmHg 80%
21:00 +21°C° 0 mm 3 m/s 756 mmHg 81%
22:00 +20°C° 0 mm 2 m/s 756 mmHg 82%
23:00 +20°C° 0 mm 2 m/s 756 mmHg 83%

Poimâine, 14 August, Vineri

Timp Temperatura Precipitaţii Vânt Presiune Umiditate
00:00 +21°C° 0 mm 1 m/s 756 mmHg 83%
01:00 +20°C° 0 mm 1 m/s 756 mmHg 83%
02:00 +20°C° 0 mm 1 m/s 756 mmHg 84%
03:00 +20°C° 0 mm 1 m/s 756 mmHg 84%
04:00 +20°C° 0 mm 1 m/s 755 mmHg 84%
05:00 +19°C° 0 mm 1 m/s 755 mmHg 84%
06:00 +22°C° 0 mm 1 m/s 755 mmHg 73%
07:00 +24°C° 0 mm 2 m/s 755 mmHg 62%
08:00 +26°C° 0 mm 2 m/s 755 mmHg 50%
09:00 +27°C° 0 mm 3 m/s 755 mmHg 45%
10:00 +29°C° 0 mm 3 m/s 755 mmHg 40%
11:00 +30°C° 0 mm 4 m/s 755 mmHg 35%
12:00 +30°C° 0 mm 4 m/s 755 mmHg 35%
13:00 +32°C° 0 mm 4 m/s 755 mmHg 35%
14:00 +32°C° 0 mm 5 m/s 754 mmHg 35%
15:00 +30°C° 0 mm 5 m/s 754 mmHg 37%
16:00 +29°C° 0 mm 5 m/s 754 mmHg 40%
17:00 +28°C° 0 mm 6 m/s 754 mmHg 43%
18:00 +26°C° 0 mm 5 m/s 754 mmHg 50%
19:00 +23°C° 0 mm 5 m/s 754 mmHg 57%
20:00 +22°C° 0 mm 4 m/s 754 mmHg 63%
21:00 +21°C° 0 mm 4 m/s 754 mmHg 68%
22:00 +21°C° 0 mm 4 m/s 754 mmHg 72%
23:00 +21°C° 0 mm 3 m/s 754 mmHg 76%

15 August, Sâmbătă

Timp Temperatura Precipitaţii Vânt Presiune Umiditate
00:00 +21°C° 0 mm 3 m/s 754 mmHg 77%
01:00 +20°C° 0 mm 3 m/s 754 mmHg 78%
02:00 +20°C° 0 mm 2 m/s 754 mmHg 78%
03:00 +20°C° 0 mm 2 m/s 754 mmHg 78%
04:00 +20°C° 0 mm 2 m/s 754 mmHg 79%
05:00 +20°C° 0 mm 2 m/s 754 mmHg 79%
06:00 +22°C° 0 mm 3 m/s 754 mmHg 69%
07:00 +25°C° 0 mm 4 m/s 754 mmHg 60%
08:00 +27°C° 0 mm 4 m/s 754 mmHg 51%
09:00 +28°C° 0 mm 5 m/s 755 mmHg 46%
10:00 +29°C° 0 mm 5 m/s 755 mmHg 42%
11:00 +30°C° 0 mm 5 m/s 755 mmHg 38%
12:00 +30°C° 0 mm 6 m/s 754 mmHg 38%
13:00 +30°C° 0 mm 6 m/s 754 mmHg 37%
14:00 +30°C° 0 mm 6 m/s 754 mmHg 37%
15:00 +29°C° 0 mm 6 m/s 753 mmHg 40%
16:00 +28°C° 0 mm 6 m/s 753 mmHg 44%
17:00 +27°C° 0 mm 6 m/s 753 mmHg 47%
18:00 +26°C° 0 mm 6 m/s 753 mmHg 54%
19:00 +23°C° 0 mm 5 m/s 753 mmHg 62%
20:00 +22°C° 0 mm 5 m/s 753 mmHg 69%
21:00 +21°C° 0 mm 5 m/s 753 mmHg 73%
22:00 +21°C° 0 mm 4 m/s 754 mmHg 77%
23:00 +21°C° 0 mm 4 m/s 754 mmHg 81%

16 August, Duminică

Timp Temperatura Precipitaţii Vânt Presiune Umiditate
00:00 +21°C° 0 mm 4 m/s 754 mmHg 79%
01:00 +21°C° 0 mm 3 m/s 754 mmHg 78%
02:00 +21°C° 0 mm 3 m/s 754 mmHg 77%
03:00 +21°C° 0 mm 3 m/s 753 mmHg 76%
04:00 +21°C° 0 mm 3 m/s 753 mmHg 75%
05:00 +21°C° 0 mm 3 m/s 753 mmHg 74%
06:00 +22°C° 0 mm 4 m/s 754 mmHg 68%
07:00 +23°C° 0 mm 4 m/s 754 mmHg 61%
08:00 +25°C° 0 mm 4 m/s 754 mmHg 55%
09:00 +26°C° 0 mm 4 m/s 755 mmHg 50%
10:00 +27°C° 0 mm 4 m/s 755 mmHg 44%
11:00 +29°C° 0 mm 4 m/s 755 mmHg 39%
12:00 +28°C° 0 mm 5 m/s 755 mmHg 42%
13:00 +28°C° 0 mm 6 m/s 755 mmHg 44%
14:00 +28°C° 0 mm 6 m/s 755 mmHg 47%
15:00 +27°C° 0 mm 7 m/s 755 mmHg 48%
16:00 +27°C° 0 mm 7 m/s 755 mmHg 48%
17:00 +26°C° 0 mm 7 m/s 755 mmHg 49%
18:00 +24°C° 0 mm 6 m/s 755 mmHg 53%
19:00 +23°C° 0 mm 6 m/s 755 mmHg 58%
20:00 +21°C° 0 mm 5 m/s 756 mmHg 62%
21:00 +21°C° 0 mm 5 m/s 756 mmHg 64%
22:00 +20°C° 0 mm 4 m/s 756 mmHg 66%
23:00 +20°C° 0 mm 4 m/s 756 mmHg 68%

17 August, Luni

Timp Temperatura Precipitaţii Vânt Presiune Umiditate
00:00 +19°C° 0 mm 4 m/s 756 mmHg 69%
01:00 +19°C° 0 mm 4 m/s 756 mmHg 70%
02:00 +18°C° 0 mm 4 m/s 756 mmHg 71%
03:00 +18°C° 0 mm 4 m/s 756 mmHg 71%
04:00 +17°C° 0 mm 4 m/s 756 mmHg 71%
05:00 +17°C° 0 mm 4 m/s 756 mmHg 72%
06:00 +19°C° 0 mm 5 m/s 757 mmHg 64%
07:00 +21°C° 0 mm 5 m/s 757 mmHg 56%
08:00 +24°C° 0 mm 6 m/s 757 mmHg 49%
09:00 +26°C° 0 mm 6 m/s 757 mmHg 44%
10:00 +28°C° 0 mm 6 m/s 757 mmHg 38%
11:00 +29°C° 0 mm 7 m/s 757 mmHg 33%
12:00 +29°C° 0 mm 7 m/s 757 mmHg 34%
13:00 +29°C° 0 mm 7 m/s 757 mmHg 35%
14:00 +29°C° 0 mm 7 m/s 757 mmHg 36%
15:00 +28°C° 0 mm 7 m/s 757 mmHg 38%
16:00 +28°C° 0 mm 7 m/s 756 mmHg 40%
17:00 +27°C° 0 mm 7 m/s 756 mmHg 41%
18:00 +24°C° 0 mm 6 m/s 756 mmHg 50%
19:00 +22°C° 0 mm 5 m/s 756 mmHg 59%
20:00 +20°C° 0 mm 4 m/s 756 mmHg 68%
21:00 +19°C° 0 mm 4 m/s 756 mmHg 72%
22:00 +19°C° 0 mm 3 m/s 757 mmHg 76%
23:00 +18°C° 0 mm 2 m/s 757 mmHg 80%
Arată mai mult